Time,TemperatureF,DewpointF,PressureIn,WindDirection,WindDirectionDegrees,WindSpeedMPH,WindSpeedGustMPH,Humidity,HourlyPrecipIn,Conditions,Clouds,dailyrainin,SoftwareType,DateUTC
2017-02-20 00:03:00,53.6,53.0,29.83,SSE,157,4.4,7.0,98,0.00,,,0.00,Rainwise IP-100,2017-02-20 08:03:00,
2017-02-20 00:08:00,53.4,53.0,29.83,East,90,3.0,6.0,98,0.00,,,0.00,Rainwise IP-100,2017-02-20 08:08:00,
2017-02-20 00:13:00,53.3,52.0,29.82,East,90,3.5,8.0,98,0.00,,,0.00,Rainwise IP-100,2017-02-20 08:13:00,
2017-02-20 00:18:00,53.0,52.0,29.81,East,90,3.7,6.0,98,0.00,,,0.00,Rainwise IP-100,2017-02-20 08:18:00,
2017-02-20 00:23:00,52.9,53.0,29.82,SE,135,4.9,5.0,99,0.00,,,0.00,Rainwise IP-100,2017-02-20 08:23:00,
2017-02-20 00:28:00,52.8,53.0,29.82,SE,135,4.4,5.0,99,0.06,,,0.01,Rainwise IP-100,2017-02-20 08:28:00,
2017-02-20 00:33:00,52.8,53.0,29.81,SE,135,11.7,11.7,99,0.06,,,0.01,Rainwise IP-100,2017-02-20 08:33:00,
2017-02-20 00:38:00,53.0,53.0,29.82,SE,135,4.2,13.0,99,0.00,,,0.01,Rainwise IP-100,2017-02-20 08:38:00,
2017-02-20 00:43:00,53.1,53.0,29.81,East,90,5.8,11.0,99,0.00,,,0.01,Rainwise IP-100,2017-02-20 08:43:00,
2017-02-20 00:48:00,53.1,53.0,29.81,ESE,112,5.4,14.0,99,0.00,,,0.01,Rainwise IP-100,2017-02-20 08:48:00,
2017-02-20 00:53:00,53.2,53.0,29.79,SSE,157,8.6,11.0,99,0.00,,,0.01,Rainwise IP-100,2017-02-20 08:53:00,
2017-02-20 00:58:00,53.4,53.0,29.80,SE,135,4.7,16.0,99,0.00,,,0.01,Rainwise IP-100,2017-02-20 08:58:00,
2017-02-20 01:03:00,53.7,53.0,29.81,SE,135,13.1,14.0,99,0.00,,,0.01,Rainwise IP-100,2017-02-20 09:03:00,
2017-02-20 01:08:00,54.2,54.0,29.81,ESE,112,10.7,18.0,99,0.00,,,0.01,Rainwise IP-100,2017-02-20 09:08:00,
2017-02-20 01:13:00,54.5,54.0,29.81,SE,135,11.2,16.0,99,0.00,,,0.01,Rainwise IP-100,2017-02-20 09:13:00,
2017-02-20 01:18:00,54.6,54.0,29.81,SSE,157,4.4,11.0,98,0.00,,,0.01,Rainwise IP-100,2017-02-20 09:18:00,
2017-02-20 01:23:00,54.6,54.0,29.82,SE,135,4.9,8.0,98,0.00,,,0.01,Rainwise IP-100,2017-02-20 09:23:00,
2017-02-20 01:28:00,54.4,54.0,29.83,SSE,157,5.1,9.0,98,0.00,,,0.01,Rainwise IP-100,2017-02-20 09:28:00,
2017-02-20 01:33:00,54.4,54.0,29.82,SSE,157,5.1,9.0,98,0.00,,,0.01,Rainwise IP-100,2017-02-20 09:33:00,
2017-02-20 01:38:00,54.4,54.0,29.82,SSE,157,2.6,5.0,98,0.00,,,0.01,Rainwise IP-100,2017-02-20 09:38:00,
2017-02-20 01:43:00,54.4,54.0,29.82,South,180,3.0,5.0,98,0.00,,,0.01,Rainwise IP-100,2017-02-20 09:43:00,
2017-02-20 01:48:00,54.4,54.0,29.83,South,180,6.1,8.0,98,0.00,,,0.01,Rainwise IP-100,2017-02-20 09:48:00,
2017-02-20 01:53:00,54.4,54.0,29.83,South,180,8.2,12.0,98,0.00,,,0.01,Rainwise IP-100,2017-02-20 09:53:00,
2017-02-20 01:58:00,54.7,54.0,29.83,SE,135,13.1,14.0,98,0.06,,,0.02,Rainwise IP-100,2017-02-20 09:58:00,
2017-02-20 02:03:00,55.0,54.0,29.81,SE,135,10.0,18.0,98,0.06,,,0.02,Rainwise IP-100,2017-02-20 10:03:00,
2017-02-20 02:08:00,55.2,54.0,29.81,ESE,112,16.3,21.0,98,0.00,,,0.02,Rainwise IP-100,2017-02-20 10:08:00,
2017-02-20 02:13:00,55.4,54.0,29.81,South,180,11.7,18.0,98,0.00,,,0.02,Rainwise IP-100,2017-02-20 10:13:00,
2017-02-20 02:18:00,55.5,55.0,29.81,SE,135,8.9,18.0,98,0.00,,,0.02,Rainwise IP-100,2017-02-20 10:18:00,
2017-02-20 02:23:00,55.6,55.0,29.81,SSE,157,11.4,15.0,98,0.00,,,0.02,Rainwise IP-100,2017-02-20 10:23:00,
2017-02-20 02:28:00,55.6,55.0,29.82,SE,135,6.5,16.0,98,0.00,,,0.02,Rainwise IP-100,2017-02-20 10:28:00,
2017-02-20 02:33:00,55.8,55.0,29.83,SE,135,5.4,11.0,98,0.00,,,0.02,Rainwise IP-100,2017-02-20 10:33:00,
2017-02-20 02:38:00,55.9,55.0,29.83,SE,135,6.3,9.0,98,0.00,,,0.02,Rainwise IP-100,2017-02-20 10:38:00,
2017-02-20 02:43:00,55.9,55.0,29.83,SE,135,7.9,16.0,98,0.00,,,0.02,Rainwise IP-100,2017-02-20 10:43:00,
2017-02-20 02:48:00,55.9,55.0,29.82,SE,135,6.1,12.0,98,0.00,,,0.02,Rainwise IP-100,2017-02-20 10:48:00,
2017-02-20 02:53:00,56.1,55.0,29.83,SSE,157,12.1,15.0,98,0.06,,,0.03,Rainwise IP-100,2017-02-20 10:53:00,
2017-02-20 02:58:00,56.2,55.0,29.83,SE,135,8.6,19.0,98,0.06,,,0.03,Rainwise IP-100,2017-02-20 10:58:00,
2017-02-20 03:03:00,56.2,55.0,29.83,SE,135,14.0,17.0,98,0.00,,,0.03,Rainwise IP-100,2017-02-20 11:03:00,
2017-02-20 03:08:00,56.2,55.0,29.83,SE,135,15.4,21.0,98,0.00,,,0.03,Rainwise IP-100,2017-02-20 11:08:00,
2017-02-20 03:13:00,56.2,55.0,29.84,SE,135,7.0,15.0,98,0.00,,,0.03,Rainwise IP-100,2017-02-20 11:13:00,
2017-02-20 03:18:00,56.2,55.0,29.83,SSE,157,10.5,19.0,98,0.00,,,0.03,Rainwise IP-100,2017-02-20 11:18:00,
2017-02-20 03:23:00,56.1,55.0,29.83,SSE,157,9.1,18.0,98,0.00,,,0.03,Rainwise IP-100,2017-02-20 11:23:00,
2017-02-20 03:28:00,56.0,55.0,29.83,SSE,157,10.0,19.0,98,0.00,,,0.03,Rainwise IP-100,2017-02-20 11:28:00,
2017-02-20 03:33:00,56.0,55.0,29.84,SSE,157,13.1,14.0,98,0.00,,,0.03,Rainwise IP-100,2017-02-20 11:33:00,
2017-02-20 03:38:00,55.9,55.0,29.81,ESE,112,11.4,21.0,98,0.00,,,0.03,Rainwise IP-100,2017-02-20 11:38:00,
2017-02-20 03:43:00,55.6,55.0,29.80,SSE,157,8.9,26.0,98,0.00,,,0.03,Rainwise IP-100,2017-02-20 11:43:00,
2017-02-20 03:48:00,55.6,55.0,29.81,SE,135,13.5,20.0,98,0.00,,,0.03,Rainwise IP-100,2017-02-20 11:48:00,
2017-02-20 03:53:00,55.7,55.0,29.80,SE,135,12.1,23.0,98,0.00,,,0.03,Rainwise IP-100,2017-02-20 11:53:00,
2017-02-20 03:58:00,55.9,55.0,29.81,SSE,157,16.6,25.0,98,0.06,,,0.04,Rainwise IP-100,2017-02-20 11:58:00,
2017-02-20 04:03:00,56.0,55.0,29.79,SE,135,11.7,19.0,98,0.06,,,0.04,Rainwise IP-100,2017-02-20 12:03:00,
2017-02-20 04:08:00,56.1,55.0,29.80,SE,135,8.2,19.0,98,0.00,,,0.04,Rainwise IP-100,2017-02-20 12:08:00,
2017-02-20 04:13:00,56.2,55.0,29.79,SE,135,11.4,16.0,98,0.00,,,0.04,Rainwise IP-100,2017-02-20 12:13:00,
2017-02-20 04:18:00,56.3,55.0,29.81,SSW,202,6.1,16.0,98,0.00,,,0.04,Rainwise IP-100,2017-02-20 12:18:00,
2017-02-20 04:23:00,56.3,55.0,29.81,South,180,6.3,11.0,98,0.00,,,0.04,Rainwise IP-100,2017-02-20 12:23:00,
2017-02-20 04:28:00,56.3,55.0,29.82,SSE,157,10.5,12.0,98,0.00,,,0.04,Rainwise IP-100,2017-02-20 12:28:00,
2017-02-20 04:33:00,56.4,56.0,29.84,SSE,157,9.8,12.0,98,0.00,,,0.04,Rainwise IP-100,2017-02-20 12:33:00,
2017-02-20 04:38:00,56.5,56.0,29.84,SSE,157,5.6,14.0,98,0.00,,,0.04,Rainwise IP-100,2017-02-20 12:38:00,
2017-02-20 04:43:00,56.7,56.0,29.85,SW,225,6.5,13.0,98,0.06,,,0.05,Rainwise IP-100,2017-02-20 12:43:00,
2017-02-20 04:48:00,56.8,56.0,29.84,SSE,157,7.5,13.0,98,0.06,,,0.05,Rainwise IP-100,2017-02-20 12:48:00,
2017-02-20 04:53:00,57.1,56.0,29.86,SW,225,6.8,18.0,98,0.00,,,0.05,Rainwise IP-100,2017-02-20 12:53:00,
2017-02-20 04:58:00,57.4,57.0,29.84,South,180,5.8,11.0,98,0.00,,,0.05,Rainwise IP-100,2017-02-20 12:58:00,
2017-02-20 05:03:00,57.5,57.0,29.84,South,180,7.5,21.0,98,0.00,,,0.05,Rainwise IP-100,2017-02-20 13:03:00,
2017-02-20 05:08:00,57.6,57.0,29.85,South,180,9.1,18.0,98,0.00,,,0.05,Rainwise IP-100,2017-02-20 13:08:00,
2017-02-20 05:13:00,57.7,57.0,29.86,SW,225,5.4,15.0,98,0.00,,,0.05,Rainwise IP-100,2017-02-20 13:13:00,
2017-02-20 05:18:00,57.7,57.0,29.87,SSW,202,9.3,14.0,98,0.00,,,0.05,Rainwise IP-100,2017-02-20 13:18:00,
2017-02-20 05:23:00,57.6,57.0,29.86,SSE,157,8.9,12.0,97,0.00,,,0.05,Rainwise IP-100,2017-02-20 13:23:00,
2017-02-20 05:28:00,57.4,57.0,29.84,SSE,157,7.9,13.0,97,0.00,,,0.05,Rainwise IP-100,2017-02-20 13:28:00,
2017-02-20 05:33:00,57.2,56.0,29.84,SSE,157,6.1,10.0,98,0.00,,,0.05,Rainwise IP-100,2017-02-20 13:33:00,
2017-02-20 05:38:00,57.1,56.0,29.85,SSE,157,7.2,8.0,98,0.00,,,0.05,Rainwise IP-100,2017-02-20 13:38:00,
2017-02-20 05:43:00,57.0,56.0,29.85,SE,135,6.3,10.0,98,0.00,,,0.05,Rainwise IP-100,2017-02-20 13:43:00,
2017-02-20 05:48:00,57.0,56.0,29.87,SSE,157,6.1,10.0,98,0.06,,,0.06,Rainwise IP-100,2017-02-20 13:48:00,
2017-02-20 05:53:00,57.0,56.0,29.85,SSE,157,3.0,7.0,98,0.06,,,0.06,Rainwise IP-100,2017-02-20 13:53:00,
2017-02-20 05:58:00,56.9,56.0,29.86,South,180,5.4,8.0,98,0.00,,,0.06,Rainwise IP-100,2017-02-20 13:58:00,
2017-02-20 06:03:00,56.9,56.0,29.87,SSW,202,3.5,8.0,98,0.00,,,0.06,Rainwise IP-100,2017-02-20 14:03:00,
2017-02-20 06:08:00,56.9,56.0,29.86,SSE,157,4.4,7.0,98,0.00,,,0.06,Rainwise IP-100,2017-02-20 14:08:00,
2017-02-20 06:13:00,56.8,56.0,29.85,SE,135,13.1,13.1,98,0.00,,,0.06,Rainwise IP-100,2017-02-20 14:13:00,
2017-02-20 06:18:00,56.8,56.0,29.85,SE,135,6.5,13.0,98,0.00,,,0.06,Rainwise IP-100,2017-02-20 14:18:00,
2017-02-20 06:23:00,56.8,56.0,29.86,South,180,7.0,16.0,98,0.00,,,0.06,Rainwise IP-100,2017-02-20 14:23:00,
2017-02-20 06:28:00,56.8,56.0,29.85,South,180,9.1,10.0,97,0.00,,,0.06,Rainwise IP-100,2017-02-20 14:28:00,
2017-02-20 06:33:00,56.8,56.0,29.85,SE,135,8.9,12.0,97,0.00,,,0.06,Rainwise IP-100,2017-02-20 14:33:00,
2017-02-20 06:38:00,56.8,56.0,29.85,SSE,157,4.4,11.0,97,0.06,,,0.07,Rainwise IP-100,2017-02-20 14:38:00,
2017-02-20 06:43:00,56.7,56.0,29.85,SE,135,5.8,8.0,97,0.06,,,0.07,Rainwise IP-100,2017-02-20 14:43:00,
2017-02-20 06:48:00,56.6,56.0,29.86,SE,135,4.7,10.0,97,0.00,,,0.07,Rainwise IP-100,2017-02-20 14:48:00,
2017-02-20 06:53:00,56.5,56.0,29.87,SE,135,6.1,7.0,97,0.00,,,0.07,Rainwise IP-100,2017-02-20 14:53:00,
2017-02-20 06:58:00,56.4,56.0,29.86,SE,135,6.1,9.0,97,0.00,,,0.07,Rainwise IP-100,2017-02-20 14:58:00,
2017-02-20 07:03:00,56.3,55.0,29.86,SSE,157,7.2,9.0,97,0.00,,,0.07,Rainwise IP-100,2017-02-20 15:03:00,
2017-02-20 07:08:00,56.3,55.0,29.86,SE,135,5.6,9.0,97,0.00,,,0.07,Rainwise IP-100,2017-02-20 15:08:00,
2017-02-20 07:13:00,56.3,55.0,29.87,SE,135,6.3,8.0,97,0.00,,,0.07,Rainwise IP-100,2017-02-20 15:13:00,
2017-02-20 07:18:00,56.3,55.0,29.87,SE,135,4.9,11.0,97,0.00,,,0.07,Rainwise IP-100,2017-02-20 15:18:00,
2017-02-20 07:23:00,56.2,55.0,29.87,SE,135,4.4,7.0,97,0.00,,,0.07,Rainwise IP-100,2017-02-20 15:23:00,
2017-02-20 07:28:00,56.1,55.0,29.86,ESE,112,3.3,6.0,97,0.00,,,0.07,Rainwise IP-100,2017-02-20 15:28:00,
2017-02-20 07:33:00,56.0,55.0,29.87,ESE,112,3.3,6.0,97,0.00,,,0.07,Rainwise IP-100,2017-02-20 15:33:00,
2017-02-20 07:38:00,55.9,55.0,29.86,SE,135,3.3,6.0,98,0.00,,,0.07,Rainwise IP-100,2017-02-20 15:38:00,
2017-02-20 07:43:00,55.8,55.0,29.86,SE,135,4.4,9.0,98,0.00,,,0.07,Rainwise IP-100,2017-02-20 15:43:00,
2017-02-20 07:48:00,55.7,55.0,29.87,East,90,6.1,7.0,98,0.00,,,0.07,Rainwise IP-100,2017-02-20 15:48:00,
2017-02-20 07:53:00,55.6,55.0,29.87,ESE,112,2.1,6.0,98,0.00,,,0.07,Rainwise IP-100,2017-02-20 15:53:00,
2017-02-20 07:58:00,55.5,55.0,29.87,SE,135,5.1,5.1,98,0.00,,,0.07,Rainwise IP-100,2017-02-20 15:58:00,
2017-02-20 08:03:00,55.4,54.0,29.87,SE,135,3.0,6.0,98,0.06,,,0.08,Rainwise IP-100,2017-02-20 16:03:00,
2017-02-20 08:08:00,55.3,54.0,29.88,SE,135,3.3,5.0,98,0.06,,,0.08,Rainwise IP-100,2017-02-20 16:08:00,
2017-02-20 08:13:00,55.2,54.0,29.88,East,90,5.6,7.0,98,0.00,,,0.08,Rainwise IP-100,2017-02-20 16:13:00,
2017-02-20 08:18:00,55.2,54.0,29.89,ESE,112,1.9,7.0,98,0.00,,,0.08,Rainwise IP-100,2017-02-20 16:18:00,
2017-02-20 08:23:00,55.2,54.0,29.89,SE,135,5.8,6.0,98,0.00,,,0.08,Rainwise IP-100,2017-02-20 16:23:00,
2017-02-20 08:28:00,55.1,55.0,29.89,SSE,157,8.2,9.0,99,0.00,,,0.08,Rainwise IP-100,2017-02-20 16:28:00,
2017-02-20 08:33:00,55.0,54.0,29.89,SE,135,7.7,13.0,98,0.00,,,0.08,Rainwise IP-100,2017-02-20 16:33:00,
2017-02-20 08:38:00,55.0,54.0,29.89,SE,135,5.8,14.0,98,0.00,,,0.08,Rainwise IP-100,2017-02-20 16:38:00,
2017-02-20 08:43:00,55.1,54.0,29.88,SE,135,12.8,14.0,98,0.00,,,0.08,Rainwise IP-100,2017-02-20 16:43:00,
2017-02-20 08:48:00,55.2,54.0,29.88,SE,135,7.9,14.0,97,0.00,,,0.08,Rainwise IP-100,2017-02-20 16:48:00,
2017-02-20 08:53:00,55.2,54.0,29.90,SE,135,10.3,15.0,97,0.06,,,0.09,Rainwise IP-100,2017-02-20 16:53:00,
2017-02-20 08:58:00,55.2,54.0,29.90,SE,135,11.7,16.0,97,0.06,,,0.09,Rainwise IP-100,2017-02-20 16:58:00,
2017-02-20 09:03:00,55.2,54.0,29.90,SE,135,7.9,17.0,96,0.00,,,0.09,Rainwise IP-100,2017-02-20 17:03:00,
2017-02-20 09:08:00,55.2,54.0,29.90,SE,135,7.7,15.0,96,0.00,,,0.09,Rainwise IP-100,2017-02-20 17:08:00,
2017-02-20 09:13:00,55.1,54.0,29.90,SE,135,8.9,14.0,96,0.00,,,0.09,Rainwise IP-100,2017-02-20 17:13:00,
2017-02-20 09:18:00,55.0,54.0,29.90,SE,135,9.3,18.0,96,0.00,,,0.09,Rainwise IP-100,2017-02-20 17:18:00,
2017-02-20 09:23:00,55.1,54.0,29.90,ESE,112,8.2,18.0,96,0.00,,,0.09,Rainwise IP-100,2017-02-20 17:23:00,
2017-02-20 09:28:00,55.1,54.0,29.90,SE,135,7.9,15.0,96,0.00,,,0.09,Rainwise IP-100,2017-02-20 17:28:00,
2017-02-20 09:33:00,55.1,54.0,29.90,SSE,157,9.8,17.0,96,0.00,,,0.09,Rainwise IP-100,2017-02-20 17:33:00,
2017-02-20 09:38:00,55.0,54.0,29.90,SE,135,7.5,12.0,96,0.00,,,0.09,Rainwise IP-100,2017-02-20 17:38:00,
2017-02-20 09:43:00,55.0,54.0,29.90,SE,135,11.2,16.0,96,0.00,,,0.09,Rainwise IP-100,2017-02-20 17:43:00,
2017-02-20 09:48:00,55.1,54.0,29.90,East,90,8.6,15.0,96,0.00,,,0.09,Rainwise IP-100,2017-02-20 17:48:00,
2017-02-20 09:53:00,55.1,54.0,29.90,SE,135,12.4,15.0,96,0.00,,,0.09,Rainwise IP-100,2017-02-20 17:53:00,
2017-02-20 09:58:00,55.1,54.0,29.91,SE,135,9.6,19.0,96,0.00,,,0.09,Rainwise IP-100,2017-02-20 17:58:00,
2017-02-20 10:03:00,55.1,54.0,29.91,SE,135,14.5,17.0,96,0.00,,,0.09,Rainwise IP-100,2017-02-20 18:03:00,
2017-02-20 10:08:00,55.1,54.0,29.92,ESE,112,16.3,17.0,96,0.00,,,0.09,Rainwise IP-100,2017-02-20 18:08:00,
2017-02-20 10:13:00,55.0,54.0,29.92,SE,135,7.0,17.0,96,0.06,,,0.10,Rainwise IP-100,2017-02-20 18:13:00,
2017-02-20 10:18:00,55.0,54.0,29.92,SE,135,11.2,19.0,96,0.06,,,0.10,Rainwise IP-100,2017-02-20 18:18:00,
2017-02-20 10:23:00,55.0,54.0,29.92,SE,135,7.5,20.0,96,0.00,,,0.10,Rainwise IP-100,2017-02-20 18:23:00,
2017-02-20 10:28:00,55.0,54.0,29.91,SE,135,9.6,19.0,96,0.00,,,0.10,Rainwise IP-100,2017-02-20 18:28:00,
2017-02-20 10:33:00,55.0,54.0,29.92,SE,135,9.1,16.0,96,0.00,,,0.10,Rainwise IP-100,2017-02-20 18:33:00,
2017-02-20 10:38:00,55.0,54.0,29.92,SE,135,9.1,14.0,96,0.00,,,0.10,Rainwise IP-100,2017-02-20 18:38:00,
2017-02-20 10:43:00,55.0,54.0,29.93,SE,135,8.4,21.0,96,0.00,,,0.10,Rainwise IP-100,2017-02-20 18:43:00,
2017-02-20 10:48:00,55.1,54.0,29.92,SE,135,10.3,19.0,96,0.00,,,0.10,Rainwise IP-100,2017-02-20 18:48:00,
2017-02-20 10:53:00,55.2,54.0,29.91,SE,135,12.6,18.0,96,0.00,,,0.10,Rainwise IP-100,2017-02-20 18:53:00,
2017-02-20 10:58:00,55.1,54.0,29.91,SE,135,10.3,20.0,96,0.00,,,0.11,Rainwise IP-100,2017-02-20 18:58:00,
2017-02-20 11:03:00,55.1,54.0,29.92,SE,135,7.2,20.0,95,0.06,,,0.11,Rainwise IP-100,2017-02-20 19:03:00,
2017-02-20 11:08:00,55.1,54.0,29.92,ESE,112,7.5,16.0,95,0.06,,,0.11,Rainwise IP-100,2017-02-20 19:08:00,
2017-02-20 11:13:00,55.1,54.0,29.92,SE,135,8.6,17.0,96,0.00,,,0.11,Rainwise IP-100,2017-02-20 19:13:00,
2017-02-20 11:18:00,55.0,54.0,29.91,SE,135,10.7,18.0,96,0.00,,,0.11,Rainwise IP-100,2017-02-20 19:18:00,
2017-02-20 11:23:00,55.1,54.0,29.91,SE,135,7.5,15.0,96,0.00,,,0.11,Rainwise IP-100,2017-02-20 19:23:00,
2017-02-20 11:28:00,55.1,54.0,29.92,SE,135,14.5,18.0,96,0.00,,,0.11,Rainwise IP-100,2017-02-20 19:28:00,
2017-02-20 11:33:00,55.1,54.0,29.92,SSE,157,11.2,18.0,96,0.00,,,0.11,Rainwise IP-100,2017-02-20 19:33:00,
2017-02-20 11:38:00,55.1,54.0,29.91,SE,135,7.0,18.0,96,0.00,,,0.11,Rainwise IP-100,2017-02-20 19:38:00,
2017-02-20 11:43:00,55.0,54.0,29.91,SSE,157,6.1,15.0,96,0.00,,,0.11,Rainwise IP-100,2017-02-20 19:43:00,
2017-02-20 11:48:00,55.0,54.0,29.92,SE,135,10.5,16.0,96,0.00,,,0.11,Rainwise IP-100,2017-02-20 19:48:00,
2017-02-20 11:53:00,55.0,54.0,29.92,ESE,112,15.6,15.6,96,0.00,,,0.11,Rainwise IP-100,2017-02-20 19:53:00,
2017-02-20 11:58:00,55.0,54.0,29.92,SE,135,9.3,16.0,96,0.06,,,0.12,Rainwise IP-100,2017-02-20 19:58:00,
2017-02-20 12:03:00,55.0,54.0,29.92,SE,135,3.5,15.0,96,0.06,,,0.12,Rainwise IP-100,2017-02-20 20:03:00,
2017-02-20 12:08:00,55.0,54.0,29.92,SE,135,8.4,12.0,96,0.00,,,0.12,Rainwise IP-100,2017-02-20 20:08:00,
2017-02-20 12:13:00,55.0,54.0,29.92,SE,135,7.9,15.0,96,0.00,,,0.12,Rainwise IP-100,2017-02-20 20:13:00,
2017-02-20 12:18:00,55.0,54.0,29.91,SE,135,5.6,12.0,96,0.00,,,0.12,Rainwise IP-100,2017-02-20 20:18:00,
2017-02-20 12:23:00,55.0,54.0,29.91,SE,135,9.1,15.0,96,0.00,,,0.12,Rainwise IP-100,2017-02-20 20:23:00,
2017-02-20 12:28:00,55.0,54.0,29.91,SE,135,10.5,15.0,96,0.00,,,0.12,Rainwise IP-100,2017-02-20 20:28:00,
2017-02-20 12:33:00,55.0,54.0,29.91,SE,135,7.9,17.0,96,0.00,,,0.12,Rainwise IP-100,2017-02-20 20:33:00,
2017-02-20 12:34:00,55.0,54.0,29.91,SE,135,7.7,17.0,96,0.00,,,0.12,Rainwise IP-100,2017-02-20 20:34:00,
2017-02-20 12:39:00,55.0,54.0,29.91,SE,135,5.1,17.0,96,0.00,,,0.12,Rainwise IP-100,2017-02-20 20:39:00,
2017-02-20 12:44:00,54.9,54.0,29.90,SE,135,6.8,11.0,96,0.00,,,0.12,Rainwise IP-100,2017-02-20 20:44:00,
2017-02-20 12:49:00,54.8,53.0,29.90,ESE,112,4.4,11.0,96,0.06,,,0.13,Rainwise IP-100,2017-02-20 20:49:00,
2017-02-20 12:54:00,54.8,53.0,29.89,SE,135,6.1,11.0,96,0.06,,,0.13,Rainwise IP-100,2017-02-20 20:54:00,
2017-02-20 12:59:00,54.8,53.0,29.88,SE,135,7.0,12.0,96,0.00,,,0.13,Rainwise IP-100,2017-02-20 20:59:00,
2017-02-20 13:04:00,54.8,54.0,29.88,ESE,112,4.4,13.0,97,0.00,,,0.13,Rainwise IP-100,2017-02-20 21:04:00,
2017-02-20 13:09:00,54.8,54.0,29.88,SSE,157,6.1,15.0,97,0.00,,,0.13,Rainwise IP-100,2017-02-20 21:09:00,
2017-02-20 13:14:00,54.7,54.0,29.90,SE,135,6.5,12.0,97,0.00,,,0.13,Rainwise IP-100,2017-02-20 21:14:00,
2017-02-20 13:19:00,54.8,54.0,29.90,SE,135,10.5,13.0,97,0.00,,,0.13,Rainwise IP-100,2017-02-20 21:19:00,
2017-02-20 13:24:00,54.7,54.0,29.90,SSE,157,9.6,12.0,97,0.00,,,0.13,Rainwise IP-100,2017-02-20 21:24:00,
2017-02-20 13:29:00,54.7,54.0,29.89,SE,135,8.2,12.0,97,0.00,,,0.13,Rainwise IP-100,2017-02-20 21:29:00,
2017-02-20 13:34:00,54.7,54.0,29.87,East,90,3.7,13.0,97,0.00,,,0.13,Rainwise IP-100,2017-02-20 21:34:00,
2017-02-20 13:39:00,54.7,54.0,29.87,SE,135,2.1,10.0,97,0.00,,,0.13,Rainwise IP-100,2017-02-20 21:39:00,
2017-02-20 13:44:00,54.9,54.0,29.86,ESE,112,2.8,9.0,97,0.06,,,0.14,Rainwise IP-100,2017-02-20 21:44:00,
2017-02-20 13:49:00,55.0,54.0,29.86,SE,135,7.0,10.0,97,0.06,,,0.14,Rainwise IP-100,2017-02-20 21:49:00,
2017-02-20 13:54:00,55.0,54.0,29.85,ESE,112,8.6,11.0,98,0.00,,,0.14,Rainwise IP-100,2017-02-20 21:54:00,
2017-02-20 13:59:00,54.9,54.0,29.85,ESE,112,4.2,12.0,98,0.00,,,0.14,Rainwise IP-100,2017-02-20 21:59:00,
2017-02-20 14:04:00,54.9,54.0,29.84,SE,135,6.5,7.0,98,0.00,,,0.14,Rainwise IP-100,2017-02-20 22:04:00,
2017-02-20 14:09:00,55.0,54.0,29.84,SE,135,8.2,13.0,98,0.00,,,0.14,Rainwise IP-100,2017-02-20 22:09:00,
2017-02-20 14:14:00,55.1,54.0,29.86,SSE,157,10.0,12.0,98,0.00,,,0.14,Rainwise IP-100,2017-02-20 22:14:00,
2017-02-20 14:19:00,55.1,54.0,29.87,SE,135,5.6,14.0,98,0.06,,,0.15,Rainwise IP-100,2017-02-20 22:19:00,
2017-02-20 14:24:00,55.0,54.0,29.86,SE,135,8.2,10.0,98,0.06,,,0.15,Rainwise IP-100,2017-02-20 22:24:00,
2017-02-20 14:29:00,55.0,54.0,29.87,SE,135,4.7,15.0,98,0.00,,,0.15,Rainwise IP-100,2017-02-20 22:29:00,
2017-02-20 14:34:00,55.0,54.0,29.87,SE,135,7.7,12.0,98,0.00,,,0.15,Rainwise IP-100,2017-02-20 22:34:00,
2017-02-20 14:39:00,55.0,54.0,29.87,SE,135,4.7,12.0,98,0.00,,,0.15,Rainwise IP-100,2017-02-20 22:39:00,
2017-02-20 14:44:00,55.1,54.0,29.86,ESE,112,5.8,15.0,98,0.00,,,0.15,Rainwise IP-100,2017-02-20 22:44:00,
2017-02-20 14:49:00,55.2,54.0,29.85,SSE,157,3.0,10.0,98,0.00,,,0.15,Rainwise IP-100,2017-02-20 22:49:00,
2017-02-20 14:54:00,55.2,54.0,29.85,SE,135,5.1,14.0,98,0.00,,,0.15,Rainwise IP-100,2017-02-20 22:54:00,
2017-02-20 14:59:00,55.3,54.0,29.85,SE,135,4.2,9.0,98,0.00,,,0.15,Rainwise IP-100,2017-02-20 22:59:00,
2017-02-20 15:04:00,55.3,54.0,29.85,SE,135,8.2,12.0,98,0.06,,,0.16,Rainwise IP-100,2017-02-20 23:04:00,
2017-02-20 15:09:00,55.3,54.0,29.86,ESE,112,7.2,10.0,98,0.06,,,0.16,Rainwise IP-100,2017-02-20 23:09:00,
2017-02-20 15:14:00,55.4,54.0,29.86,SSE,157,5.8,12.0,98,0.00,,,0.16,Rainwise IP-100,2017-02-20 23:14:00,
2017-02-20 15:19:00,55.4,54.0,29.86,SE,135,9.6,9.6,98,0.00,,,0.16,Rainwise IP-100,2017-02-20 23:19:00,
2017-02-20 15:24:00,55.3,54.0,29.85,SSE,157,5.6,11.0,98,0.00,,,0.16,Rainwise IP-100,2017-02-20 23:24:00,
2017-02-20 15:29:00,55.1,54.0,29.86,SE,135,5.8,10.0,98,0.00,,,0.16,Rainwise IP-100,2017-02-20 23:29:00,
2017-02-20 15:34:00,55.0,54.0,29.86,SE,135,5.6,8.0,98,0.00,,,0.16,Rainwise IP-100,2017-02-20 23:34:00,
2017-02-20 15:39:00,54.8,54.0,29.86,SE,135,4.9,7.0,98,0.06,,,0.17,Rainwise IP-100,2017-02-20 23:39:00,
2017-02-20 15:44:00,54.7,54.0,29.85,SE,135,6.3,9.0,98,0.06,,,0.17,Rainwise IP-100,2017-02-20 23:44:00,
2017-02-20 15:49:00,54.6,54.0,29.85,SE,135,8.4,12.0,98,0.00,,,0.17,Rainwise IP-100,2017-02-20 23:49:00,
2017-02-20 15:54:00,54.6,54.0,29.86,SE,135,7.0,12.0,98,0.00,,,0.17,Rainwise IP-100,2017-02-20 23:54:00,
2017-02-20 15:59:00,54.5,54.0,29.86,SE,135,6.3,11.0,98,0.00,,,0.17,Rainwise IP-100,2017-02-20 23:59:00,
2017-02-20 16:04:00,54.5,54.0,29.85,ESE,112,6.8,9.0,98,0.00,,,0.17,Rainwise IP-100,2017-02-21 00:04:00,
2017-02-20 16:09:00,54.5,54.0,29.85,SE,135,4.9,14.0,97,0.00,,,0.17,Rainwise IP-100,2017-02-21 00:09:00,
2017-02-20 16:14:00,54.5,54.0,29.84,SE,135,6.5,11.0,97,0.00,,,0.17,Rainwise IP-100,2017-02-21 00:14:00,
2017-02-20 16:19:00,54.6,54.0,29.84,SSE,157,11.4,14.0,97,0.00,,,0.18,Rainwise IP-100,2017-02-21 00:19:00,
2017-02-20 16:24:00,54.6,54.0,29.83,SE,135,3.3,16.0,97,0.06,,,0.18,Rainwise IP-100,2017-02-21 00:24:00,
2017-02-20 16:29:00,54.7,54.0,29.83,East,90,8.4,18.0,97,0.06,,,0.18,Rainwise IP-100,2017-02-21 00:29:00,
2017-02-20 16:34:00,54.8,54.0,29.84,East,90,7.7,16.0,97,0.00,,,0.18,Rainwise IP-100,2017-02-21 00:34:00,
2017-02-20 16:39:00,54.9,54.0,29.84,SE,135,9.8,15.0,96,0.00,,,0.18,Rainwise IP-100,2017-02-21 00:39:00,
2017-02-20 16:44:00,55.0,54.0,29.84,SE,135,13.5,17.0,96,0.00,,,0.18,Rainwise IP-100,2017-02-21 00:44:00,
2017-02-20 16:49:00,54.9,54.0,29.84,SE,135,8.2,16.0,96,0.00,,,0.18,Rainwise IP-100,2017-02-21 00:49:00,
2017-02-20 16:54:00,54.8,53.0,29.84,ESE,112,6.5,19.0,96,0.06,,,0.19,Rainwise IP-100,2017-02-21 00:54:00,
2017-02-20 16:59:00,54.9,54.0,29.85,SSE,157,7.5,19.0,96,0.06,,,0.19,Rainwise IP-100,2017-02-21 00:59:00,
2017-02-20 17:04:00,55.0,54.0,29.84,SE,135,14.5,14.5,96,0.00,,,0.19,Rainwise IP-100,2017-02-21 01:04:00,
2017-02-20 17:09:00,55.1,54.0,29.84,ESE,112,10.0,15.0,96,0.00,,,0.19,Rainwise IP-100,2017-02-21 01:09:00,
2017-02-20 17:14:00,55.2,54.0,29.84,SE,135,7.7,19.0,96,0.00,,,0.19,Rainwise IP-100,2017-02-21 01:14:00,
2017-02-20 17:19:00,55.3,54.0,29.83,South,180,9.8,13.0,96,0.00,,,0.19,Rainwise IP-100,2017-02-21 01:19:00,